Location: Kirtland Hills
(41.6239°N, 81.3071°W)
Time: 18:43:42
(UTC+00:00)

Cosmos 1300 - Pass Details

Date: 29 October 2020
Orbit: 511 x 513 km, 82.5° (Epoch: 23 November)

Event Time Altitude Azimuth Distance (km) Brightness Sun altitude
Rises 23:23:17 0° 205° (SSW) 2,615 6.8 -11.8°
Reaches altitude 10° 23:25:31 10° 214° (SW) 1,733 6.0 -12.2°
Maximum altitude 23:29:02 36° 282° (WNW) 830 4.4 -12.9°
Drops below altitude 10° 23:32:36 10° 351° (N) 1,747 5.4 -13.5°
Sets 23:34:52 0° 360° (N) 2,638 6.2 -14.0°
